Location: Unspecified
(0.0000°N, 0.0000°E)
Time: 19:27:49
(UTC+00:00)

Transit 2A - Visible Passes

Search period start: 10 August 2020 00:00
Search period end: 20 August 2020 00:00
Orbit: 591 x 967 km, 66.7° (Epoch: 10 August)

Date Brightness Start Highest point End Pass type
(mag) Time Alt. Az. Time Alt. Az. Time Alt. Az.
10 Aug 7.2 18:51:45 10° SW 18:56:31 46° WNW 19:01:48 10° N visible
11 Aug 6.2 18:17:26 10° SSW 18:22:23 80° WNW 18:27:54 10° NNE visible
12 Aug 8.9 05:11:07 10° NNE 05:15:22 22° ENE 05:19:20 10° ESE visible
13 Aug 9.4 04:38:46 10° NE 04:41:08 13° ENE 04:43:27 10° E visible
13 Aug 9.3 18:54:25 10° W 18:57:18 15° WNW 19:00:20 10° NNW visible
14 Aug 8.8 18:18:56 10° WSW 18:23:05 25° WNW 18:27:35 10° NNW visible
15 Aug 6.5 05:10:29 10° NNW 05:16:07 67° ENE 05:21:11 10° SSE visible
16 Aug 7.5 04:36:42 10° N 04:41:58 39° ENE 04:46:44 10° SE visible
17 Aug 8.3 04:03:21 10° NNE 04:07:47 24° ENE 04:11:53 10° ESE visible
18 Aug 8.9 03:30:45 10° NE 03:33:33 14° ENE 03:36:15 10° E visible
18 Aug 6.5 05:11:33 10° NW 05:16:39 38° WSW 05:21:18 10° S visible
19 Aug 5.9 04:37:04 10° NNW 04:42:36 65° WSW 04:47:34 10° S visible
